Date String (YYYY-MM-DD hh:mm:ss) UTC,Instrument flags,Ambient pressure (hPa),Sample flow (lpm),Bypass flow (lpm),Sample temperature (°C),Ambient temperature (°C),ASC tube jacket temperature (°C),LED temperature (°C),Box temperature (°C),Sample RH (%),Span deviation,Mass concentration (μg/m³),Mass concentration (μg/m³),Mass concentration (μg/m³)
DateTimeUTC,F1_M11,P_M11,Q1_M11,Q2_M11,T1_M11,T2_M11,T3_M11,T4_M11,T5_M11,U1_M11,ZSPAN_M11,X0_M11,X2_M11,X1_M11
2022-11-17 05:00:00,,0830.3,5.00,0.00,20.9,19.8,00.0,29.8,22.7,10.0,0000.0,0009.22,0004.10,0003.52
2022-11-17 05:01:00,,0830.3,5.00,0.00,20.9,19.6,00.0,29.8,22.6,10.3,0000.0,0009.08,0004.02,0003.48
2022-11-17 05:02:00,,0830.2,5.00,0.00,20.9,19.5,00.0,29.8,22.6,10.4,0000.0,0009.11,0004.00,0003.46
2022-11-17 05:03:00,,0830.2,5.00,0.00,20.9,19.4,00.0,29.8,22.6,10.5,0000.0,0008.92,0003.99,0003.44
2022-11-17 05:04:00,,0830.3,5.00,0.00,20.9,19.4,00.0,29.8,22.6,10.6,0000.0,0008.71,0004.00,0003.45
2022-11-17 05:05:00,,0830.2,5.00,0.00,20.9,19.3,00.0,29.8,22.6,10.5,0000.0,0008.39,0004.03,0003.48
2022-11-17 05:06:00,,0830.2,5.01,0.00,20.9,19.5,00.0,29.8,22.6,10.6,0000.0,0008.45,0004.10,0003.54
2022-11-17 05:07:00,,0830.1,4.99,0.00,21.0,20.8,00.0,29.7,22.8,10.6,0000.0,0008.80,0004.19,0003.65
2022-11-17 05:08:00,,0830.1,4.99,0.00,21.1,21.7,00.0,29.7,23.1,10.6,0000.0,0009.20,0004.27,0003.71
2022-11-17 05:09:00,,0830.1,5.00,0.00,21.2,21.5,00.0,29.8,23.2,10.4,0000.0,0010.08,0004.36,0003.78
2022-11-17 05:10:00,,0830.1,5.00,0.00,21.2,21.1,00.0,29.9,23.1,10.2,0000.0,0010.58,0004.46,0003.86
2022-11-17 05:11:00,,0830.2,5.00,0.00,21.2,20.8,00.0,29.9,23.1,10.4,0000.0,0011.19,0004.55,0003.91
2022-11-17 05:12:00,,0830.2,5.00,0.00,21.2,20.5,00.0,30.0,23.0,10.2,0000.0,0011.18,0004.56,0003.92
2022-11-17 05:13:00,,0830.1,5.00,0.00,21.2,20.2,00.0,30.0,23.0,10.0,0000.0,0011.12,0004.54,0003.91
2022-11-17 05:14:00,,0830.1,5.01,0.00,21.2,20.0,00.0,30.0,22.9,10.0,0000.0,0011.42,0004.55,0003.90
2022-11-17 05:15:00,,0830.1,5.00,0.00,21.2,19.9,00.0,30.0,22.9,10.0,0000.0,0011.06,0004.50,0003.86
2022-11-17 05:16:00,,0830.1,5.00,0.00,21.2,19.8,00.0,30.0,22.9,09.9,0000.0,0010.91,0004.47,0003.82
2022-11-17 05:17:00,,0830.0,5.00,0.00,21.2,19.8,00.0,30.0,22.9,10.0,0000.0,0010.89,0004.41,0003.78
2022-11-17 05:18:00,,0830.1,5.00,0.00,21.2,19.7,00.0,30.0,22.9,09.9,0000.0,0010.74,0004.36,0003.73
2022-11-17 05:19:00,,0830.1,5.00,0.00,21.1,19.7,00.0,30.0,22.9,09.8,0000.0,0010.36,0004.24,0003.66
2022-11-17 05:20:00,,0830.0,5.00,0.00,21.1,19.7,00.0,30.0,22.9,09.4,0000.0,0009.49,0004.12,0003.58
2022-11-17 05:21:00,,0830.0,5.00,0.00,21.1,19.6,00.0,30.0,22.9,09.3,0000.0,0008.89,0003.98,0003.47
2022-11-17 05:22:00,,0830.0,5.00,0.00,21.1,19.6,00.0,30.0,22.9,09.5,0000.0,0008.29,0003.88,0003.40
2022-11-17 05:23:00,,0830.0,5.00,0.00,21.2,20.3,00.0,30.0,23.0,09.3,0000.0,0008.17,0003.79,0003.33
2022-11-17 05:24:00,,0830.0,5.00,0.00,21.3,21.4,00.0,30.0,23.2,08.9,0000.0,0008.18,0003.68,0003.24
2022-11-17 05:25:00,,0830.0,4.99,0.00,21.4,21.8,00.0,30.0,23.4,08.8,0000.0,0008.01,0003.54,0003.15
2022-11-17 05:26:00,,0830.0,4.99,0.00,21.4,21.4,00.0,30.1,23.4,08.8,0000.0,0007.70,0003.45,0003.01
2022-11-17 05:27:00,,0830.0,5.01,0.00,21.4,21.1,00.0,30.1,23.3,08.9,0000.0,0007.58,0003.34,0002.88
2022-11-17 05:28:00,,0830.0,5.00,0.00,21.4,20.8,00.0,30.2,23.3,08.9,0000.0,0007.45,0003.27,0002.74
2022-11-17 05:29:00,,0830.0,5.00,0.00,21.4,20.6,00.0,30.2,23.2,08.9,0000.0,0007.62,0003.17,0002.60
2022-11-17 05:30:00,,0829.8,5.00,0.00,21.4,20.4,00.0,30.2,23.2,08.5,0000.0,0007.57,0003.04,0002.43
2022-11-17 05:31:00,,0829.9,4.99,0.00,21.4,20.2,00.0,30.2,23.2,08.6,0000.0,0007.31,0002.90,0002.30
2022-11-17 05:32:00,,0829.9,4.99,0.00,21.4,20.1,00.0,30.2,23.1,09.0,0000.0,0007.35,0002.87,0002.26
2022-11-17 05:33:00,,0829.9,5.00,0.00,21.4,20.0,00.0,30.2,23.1,08.6,0000.0,0006.90,0002.70,0002.16
2022-11-17 05:34:00,,0829.8,5.00,0.00,21.4,19.9,00.0,30.2,23.1,08.5,0000.0,0006.54,0002.51,0002.01
2022-11-17 05:35:00,,0829.9,5.00,0.00,21.3,19.9,00.0,30.2,23.1,08.4,0000.0,0006.09,0002.33,0001.88
2022-11-17 05:36:00,,0829.8,5.01,0.00,21.3,19.8,00.0,30.2,23.1,08.8,0000.0,0004.52,0002.21,0001.82
2022-11-17 05:37:00,,0829.8,5.00,0.00,21.3,19.8,00.0,30.2,23.1,08.8,0000.0,0004.30,0002.14,0001.78
2022-11-17 05:38:00,,0829.9,5.01,0.00,21.3,19.8,00.0,30.2,23.1,08.9,0000.0,0004.05,0002.06,0001.73
2022-11-17 05:39:00,,0829.9,5.01,0.00,21.3,19.8,00.0,30.2,23.1,09.0,0000.0,0004.41,0001.99,0001.69
2022-11-17 05:40:00,,0829.9,5.00,0.00,21.3,19.8,00.0,30.2,23.1,08.9,0000.0,0004.90,0001.92,0001.64
2022-11-17 05:41:00,,0830.0,5.00,0.00,21.3,20.3,00.0,30.2,23.1,08.9,0000.0,0004.52,0001.97,0001.66
2022-11-17 05:42:00,,0830.1,4.99,0.00,21.4,21.4,00.0,30.2,23.3,09.0,0000.0,0004.64,0002.04,0001.72
2022-11-17 05:43:00,,0830.1,5.00,0.00,21.5,21.9,00.0,30.2,23.6,09.2,0000.0,0004.54,0002.04,0001.73
2022-11-17 05:44:00,,0829.9,5.01,0.00,21.6,21.7,00.0,30.3,23.6,09.4,0000.0,0004.68,0002.15,0001.82
2022-11-17 05:45:00,,0829.9,4.98,0.00,21.6,21.4,00.0,30.3,23.5,09.5,0000.0,0005.05,0002.39,0002.03
2022-11-17 05:46:00,,0829.8,5.00,0.00,21.6,21.1,00.0,30.3,23.5,09.4,0000.0,0005.51,0002.70,0002.28
2022-11-17 05:47:00,,0829.9,5.00,0.00,21.6,20.9,00.0,30.4,23.5,09.4,0000.0,0006.55,0002.95,0002.46
2022-11-17 05:48:00,,0829.9,5.00,0.00,21.6,20.7,00.0,30.4,23.5,09.2,0000.0,0007.02,0003.14,0002.62
2022-11-17 05:49:00,,0829.9,5.01,0.00,21.6,20.6,00.0,30.4,23.4,09.2,0000.0,0007.20,0003.19,0002.71
2022-11-17 05:50:00,,0829.8,5.00,0.00,21.6,20.4,00.0,30.4,23.4,09.3,0000.0,0007.16,0003.30,0002.83
2022-11-17 05:51:00,,0829.9,5.00,0.00,21.6,20.4,00.0,30.4,23.4,09.2,0000.0,0006.21,0003.38,0002.93
2022-11-17 05:52:00,,0829.8,5.00,0.00,21.6,20.3,00.0,30.5,23.4,08.9,0000.0,0006.25,0003.39,0002.97
2022-11-17 05:53:00,,0829.8,5.00,0.00,21.6,20.3,00.0,30.5,23.4,08.8,0000.0,0006.26,0003.39,0002.97
2022-11-17 05:54:00,,0829.9,5.00,0.00,21.6,20.3,00.0,30.5,23.4,08.9,0000.0,0006.24,0003.38,0002.95
2022-11-17 05:55:00,,0829.8,4.99,0.00,21.6,20.2,00.0,30.5,23.4,09.3,0000.0,0006.33,0003.40,0002.97
2022-11-17 05:56:00,,0829.8,5.00,0.00,21.6,20.2,00.0,30.5,23.4,09.1,0000.0,0006.95,0003.40,0002.92
2022-11-17 05:57:00,,0829.9,5.00,0.00,21.6,20.2,00.0,30.5,23.4,09.0,0000.0,0007.96,0003.35,0002.83
2022-11-17 05:58:00,,0829.9,5.00,0.00,21.6,20.2,00.0,30.5,23.4,08.9,0000.0,0007.57,0003.32,0002.75
2022-11-17 05:59:00,,0829.8,5.01,0.00,21.6,20.2,00.0,30.5,23.4,08.8,0000.0,0007.38,0003.27,0002.67
